GFSFLT2_prec_precacc_108.txt.gz
Total_Precipitation_Accumulation
5.26 7.51 5.13 4.02 4.24 3.28 3.33 2.37 2.12 1.74 1.20 0.59 0.29 0.24 0.20 0.06 0.01 0.01 0.00 0.03 0.06 0.09 0.08 0.02 0.01 0.01 0.01 0.01 0.01 0.01 0.05 0.08
6.73 6.72 5.23 3.50 3.41 3.96 3.23 3.41 2.71 1.95 1.51 1.23 0.41 0.43 0.27 0.15 0.02 0.01 0.01 0.03 0.05 0.07 0.08 0.03 0.02 0.00 0.00 0.00 0.00 0.00 0.00 0.00
5.84 7.31 6.11 3.63 2.51 3.41 2.94 3.63 3.09 1.92 1.52 2.02 0.78 0.36 0.35 0.22 0.03 0.03 0.04 0.03 0.04 0.06 0.09 0.05 0.01 0.00 0.00 0.00 0.00 0.00 0.00 0.00
3.33 5.34 6.93 4.40 2.97 2.10 2.19 2.92 4.53 2.18 1.47 1.69 1.39 0.48 0.38 0.21 0.05 0.05 0.07 0.06 0.06 0.13 0.15 0.08 0.04 0.04 0.02 0.00 0.00 0.00 0.00 0.00
1.47 2.49 4.22 3.72 3.11 2.57 2.22 2.39 4.08 3.27 1.38 1.01 1.42 0.53 0.49 0.31 0.16 0.17 0.12 0.12 0.18 0.18 0.37 0.41 0.34 0.20 0.11 0.09 0.03 0.00 0.00 0.00
1.12 0.87 1.90 1.99 1.76 2.09 1.98 1.35 1.97 3.68 1.68 1.04 0.84 0.92 0.52 0.30 0.12 0.10 0.08 0.09 0.10 0.19 0.39 0.33 0.26 0.31 0.28 0.16 0.08 0.04 0.01 0.01
1.07 0.80 0.97 1.54 1.67 1.74 1.47 0.79 1.09 2.53 2.11 1.38 0.63 0.89 0.72 0.44 0.26 0.04 0.02 0.02 0.04 0.04 0.07 0.12 0.14 0.13 0.11 0.11 0.07 0.05 0.03 0.01
0.60 0.77 0.65 0.94 1.51 1.21 1.31 0.83 0.85 1.77 2.22 1.46 0.67 0.58 0.54 0.23 0.14 0.09 0.05 0.03 0.01 0.03 0.03 0.04 0.05 0.06 0.10 0.10 0.06 0.05 0.03 0.03
0.46 0.50 0.63 1.03 1.29 1.04 0.99 0.84 0.64 1.03 1.84 1.56 1.08 0.65 0.45 0.19 0.09 0.06 0.02 0.00 0.00 0.00 0.00 0.02 0.04 0.07 0.12 0.19 0.16 0.09 0.06 0.05
0.31 0.54 0.83 0.94 1.07 0.97 1.01 0.82 0.65 0.89 1.25 1.39 1.16 0.82 0.37 0.15 0.06 0.03 0.01 0.00 0.00 0.00 0.00 0.00 0.01 0.04 0.05 0.04 0.02 0.04 0.04 0.03
0.51 0.81 1.17 1.37 1.23 1.16 1.56 1.36 1.04 0.89 1.08 1.16 0.83 0.69 0.36 0.12 0.07 0.06 0.04 0.01 0.00 0.00 0.00 0.00 0.00 0.00 0.00 0.01 0.01 0.01 0.02 0.03
0.68 1.07 1.33 1.39 2.07 1.89 1.68 1.02 0.85 0.80 0.71 0.88 0.79 0.51 0.44 0.29 0.16 0.06 0.12 0.04 0.04 0.01 0.00 0.00 0.00 0.00 0.00 0.00 0.00 0.02 0.02 0.03
0.81 1.22 1.52 1.15 0.77 0.57 0.84 0.80 0.75 0.85 0.70 0.62 0.55 0.42 0.27 0.26 0.10 0.06 0.05 0.03 0.05 0.02 0.00 0.01 0.01 0.01 0.01 0.00 0.00 0.00 0.01 0.04
0.41 0.37 0.54 0.22 0.15 0.23 0.51 0.60 0.66 0.69 0.84 0.61 0.47 0.42 0.32 0.15 0.05 0.08 0.01 0.03 0.03 0.02 0.01 0.02 0.02 0.02 0.03 0.02 0.00 0.00 0.00 0.01
0.06 0.06 0.27 0.22 0.10 0.16 0.40 0.66 0.76 0.89 1.21 1.01 0.54 0.45 0.41 0.30 0.08 0.05 0.03 0.03 0.02 0.02 0.01 0.01 0.02 0.02 0.02 0.03 0.02 0.01 0.01 0.00
0.02 0.07 0.13 0.18 0.20 0.24 0.32 0.62 0.65 0.75 0.79 0.99 0.64 0.45 0.29 0.19 0.09 0.05 0.05 0.05 0.03 0.04 0.03 0.03 0.02 0.02 0.02 0.01 0.03 0.05 0.06 0.04
0.10 0.13 0.15 0.12 0.17 0.32 0.22 0.31 0.45 0.64 0.78 1.08 1.15 0.78 0.47 0.25 0.13 0.09 0.09 0.08 0.16 0.10 0.06 0.08 0.07 0.05 0.04 0.04 0.03 0.02 0.03 0.08
0.16 0.13 0.14 0.15 0.21 0.27 0.28 0.21 0.17 0.24 0.49 0.76 1.26 1.11 0.72 0.41 0.19 0.11 0.13 0.15 0.23 0.22 0.22 0.16 0.17 0.13 0.09 0.09 0.08 0.09 0.10 0.16
0.16 0.13 0.12 0.16 0.20 0.26 0.20 0.15 0.09 0.08 0.11 0.26 0.53 0.95 0.81 0.55 0.28 0.16 0.18 0.21 0.27 0.32 0.33 0.29 0.23 0.27 0.26 0.33 0.41 0.42 0.44 0.50
0.10 0.04 0.04 0.06 0.09 0.16 0.13 0.13 0.10 0.09 0.08 0.16 0.16 0.28 0.50 0.53 0.44 0.24 0.25 0.28 0.28 0.37 0.49 0.53 0.68 0.86 0.90 0.86 0.81 0.69 0.58 0.51

GFSFLT2_prec_precacc_111.txt.gz
Total_Precipitation_Accumulation
5.26 7.51 5.13 4.02 4.24 3.28 3.33 2.37 2.15 1.85 1.28 0.69 0.30 0.34 0.47 0.25 0.08 0.03 0.00 0.03 0.06 0.09 0.08 0.02 0.01 0.01 0.01 0.01 0.01 0.01 0.05 0.08
6.73 6.72 5.23 3.50 3.41 3.96 3.24 3.43 2.81 2.03 1.57 1.28 0.45 0.45 0.34 0.33 0.13 0.04 0.01 0.03 0.05 0.07 0.08 0.03 0.02 0.00 0.00 0.00 0.00 0.00 0.00 0.00
5.84 7.31 6.11 3.63 2.51 3.41 2.94 3.64 3.17 2.03 1.57 2.05 0.79 0.38 0.38 0.29 0.10 0.06 0.05 0.03 0.04 0.06 0.09 0.05 0.01 0.00 0.00 0.00 0.00 0.00 0.00 0.00
3.33 5.34 6.93 4.40 2.97 2.10 2.19 2.93 4.60 2.32 1.55 1.76 1.41 0.49 0.39 0.25 0.16 0.09 0.09 0.06 0.06 0.13 0.15 0.08 0.04 0.04 0.02 0.00 0.00 0.00 0.00 0.00
1.47 2.49 4.22 3.72 3.11 2.57 2.22 2.39 4.11 3.40 1.58 1.16 1.48 0.57 0.54 0.35 0.22 0.22 0.15 0.12 0.18 0.18 0.37 0.41 0.34 0.20 0.11 0.09 0.03 0.00 0.00 0.00
1.12 0.87 1.90 1.99 1.76 2.09 1.98 1.35 1.97 3.69 1.78 1.21 0.94 1.04 0.59 0.40 0.15 0.11 0.09 0.09 0.10 0.19 0.39 0.33 0.26 0.31 0.28 0.16 0.08 0.04 0.01 0.01
1.07 0.80 0.97 1.54 1.67 1.74 1.47 0.79 1.09 2.56 2.15 1.46 0.72 1.00 0.85 0.53 0.29 0.05 0.02 0.02 0.04 0.04 0.07 0.12 0.14 0.13 0.11 0.11 0.07 0.05 0.03 0.01
0.60 0.77 0.65 0.94 1.51 1.21 1.31 0.83 0.87 1.83 2.28 1.59 0.93 0.63 0.64 0.29 0.16 0.09 0.05 0.03 0.01 0.03 0.03 0.04 0.05 0.06 0.10 0.10 0.06 0.05 0.03 0.03
0.46 0.50 0.63 1.03 1.29 1.04 0.99 0.84 0.66 1.09 1.93 1.64 1.56 0.78 0.52 0.22 0.10 0.06 0.02 0.00 0.00 0.00 0.00 0.02 0.04 0.07 0.12 0.19 0.16 0.09 0.06 0.05
0.31 0.54 0.83 0.94 1.07 0.97 1.01 0.82 0.67 0.97 1.51 1.48 1.46 1.26 0.42 0.18 0.07 0.03 0.01 0.00 0.00 0.00 0.00 0.00 0.01 0.04 0.05 0.04 0.02 0.04 0.04 0.03
0.51 0.81 1.17 1.37 1.23 1.16 1.56 1.36 1.06 0.95 1.33 1.30 0.95 1.04 0.41 0.14 0.07 0.06 0.04 0.01 0.00 0.00 0.00 0.00 0.00 0.00 0.00 0.01 0.01 0.01 0.02 0.03
0.68 1.07 1.33 1.39 2.07 1.89 1.68 1.02 0.85 0.82 1.08 1.07 0.87 0.61 0.48 0.32 0.16 0.07 0.12 0.04 0.04 0.01 0.00 0.00 0.00 0.00 0.00 0.00 0.00 0.02 0.02 0.03
0.81 1.22 1.52 1.15 0.77 0.57 0.84 0.80 0.75 0.85 0.88 0.83 0.65 0.51 0.31 0.28 0.10 0.06 0.05 0.03 0.05 0.02 0.00 0.01 0.01 0.01 0.01 0.00 0.00 0.00 0.01 0.04
0.41 0.37 0.54 0.22 0.15 0.23 0.51 0.60 0.66 0.69 0.85 0.67 0.59 0.53 0.39 0.16 0.05 0.08 0.01 0.03 0.03 0.02 0.01 0.02 0.02 0.02 0.03 0.02 0.00 0.00 0.00 0.01
0.06 0.06 0.27 0.22 0.10 0.16 0.40 0.67 0.77 0.91 1.23 1.04 0.59 0.53 0.51 0.33 0.09 0.05 0.03 0.03 0.02 0.02 0.01 0.01 0.02 0.02 0.02 0.03 0.02 0.01 0.01 0.00
0.02 0.07 0.13 0.18 0.20 0.24 0.32 0.63 0.67 0.77 0.80 1.00 0.66 0.47 0.33 0.24 0.11 0.06 0.05 0.05 0.03 0.04 0.03 0.03 0.02 0.02 0.02 0.01 0.03 0.05 0.06 0.04
0.10 0.13 0.15 0.12 0.17 0.32 0.22 0.31 0.45 0.65 0.81 1.10 1.19 0.82 0.48 0.27 0.15 0.10 0.11 0.08 0.16 0.10 0.06 0.08 0.07 0.05 0.04 0.04 0.03 0.02 0.03 0.08
0.16 0.13 0.14 0.15 0.21 0.27 0.28 0.21 0.17 0.24 0.50 0.79 1.35 1.37 0.85 0.45 0.22 0.14 0.16 0.18 0.24 0.22 0.22 0.16 0.17 0.14 0.09 0.09 0.08 0.09 0.10 0.16
0.16 0.13 0.12 0.16 0.20 0.26 0.20 0.15 0.09 0.08 0.11 0.27 0.58 1.34 1.32 0.77 0.35 0.21 0.22 0.28 0.31 0.35 0.36 0.32 0.28 0.33 0.30 0.34 0.41 0.42 0.44 0.50
0.10 0.04 0.04 0.06 0.09 0.16 0.13 0.13 0.10 0.09 0.08 0.17 0.23 0.40 0.89 0.87 0.65 0.36 0.33 0.38 0.40 0.48 0.63 0.69 0.82 1.00 1.05 0.94 0.86 0.71 0.60 0.51

GFSFLT2_prec_precacc_114.txt.gz
Total_Precipitation_Accumulation
5.26 7.51 5.13 4.02 4.24 3.28 3.33 2.37 2.15 1.85 1.31 0.73 0.35 0.36 0.49 0.28 0.18 0.09 0.06 0.07 0.08 0.10 0.08 0.02 0.01 0.01 0.01 0.01 0.01 0.01 0.05 0.08
6.73 6.72 5.23 3.50 3.41 3.96 3.24 3.43 2.81 2.03 1.57 1.28 0.45 0.45 0.35 0.36 0.22 0.16 0.07 0.04 0.06 0.08 0.08 0.03 0.02 0.00 0.00 0.00 0.00 0.00 0.00 0.00
5.84 7.31 6.11 3.63 2.51 3.42 2.94 3.65 3.19 2.04 1.57 2.05 0.79 0.38 0.38 0.30 0.14 0.12 0.13 0.06 0.04 0.06 0.09 0.05 0.01 0.00 0.00 0.00 0.00 0.00 0.00 0.00
3.33 5.34 6.93 4.40 2.97 2.10 2.19 2.93 4.62 2.34 1.56 1.77 1.41 0.50 0.40 0.25 0.18 0.13 0.14 0.08 0.07 0.13 0.15 0.08 0.04 0.04 0.02 0.00 0.00 0.00 0.00 0.00
1.47 2.49 4.22 3.72 3.11 2.57 2.22 2.39 4.12 3.45 1.63 1.20 1.49 0.57 0.54 0.36 0.28 0.36 0.20 0.13 0.18 0.18 0.37 0.41 0.34 0.20 0.11 0.09 0.03 0.00 0.00 0.00
1.12 0.87 1.90 1.99 1.76 2.09 1.98 1.35 1.97 3.71 1.82 1.30 1.02 1.06 0.60 0.40 0.20 0.22 0.14 0.10 0.10 0.19 0.39 0.33 0.26 0.31 0.28 0.16 0.08 0.04 0.01 0.01
1.07 0.80 0.97 1.54 1.67 1.74 1.47 0.79 1.09 2.56 2.17 1.51 0.81 1.08 0.89 0.56 0.34 0.08 0.03 0.02 0.04 0.04 0.07 0.12 0.14 0.13 0.11 0.11 0.07 0.05 0.03 0.01
0.60 0.77 0.65 0.94 1.51 1.21 1.31 0.83 0.87 1.84 2.30 1.62 0.99 0.68 0.72 0.37 0.21 0.11 0.06 0.03 0.01 0.03 0.03 0.04 0.05 0.06 0.10 0.10 0.06 0.05 0.03 0.03
0.46 0.50 0.63 1.03 1.29 1.04 0.99 0.84 0.66 1.09 1.94 1.66 1.62 0.85 0.59 0.34 0.19 0.07 0.03 0.00 0.00 0.00 0.00 0.02 0.04 0.07 0.12 0.19 0.16 0.09 0.06 0.05
0.31 0.54 0.83 0.94 1.07 0.97 1.01 0.82 0.67 0.97 1.52 1.52 1.56 1.44 0.50 0.28 0.17 0.08 0.02 0.01 0.00 0.00 0.00 0.00 0.01 0.04 0.05 0.04 0.02 0.04 0.04 0.03
0.51 0.81 1.17 1.37 1.23 1.16 1.56 1.36 1.06 0.95 1.34 1.37 1.03 1.48 0.75 0.21 0.12 0.10 0.06 0.02 0.00 0.00 0.00 0.00 0.00 0.00 0.00 0.01 0.01 0.01 0.02 0.03
0.68 1.07 1.33 1.39 2.07 1.89 1.68 1.02 0.85 0.82 1.09 1.12 0.96 1.08 1.07 0.46 0.21 0.09 0.13 0.05 0.04 0.01 0.00 0.00 0.00 0.00 0.00 0.00 0.00 0.02 0.02 0.03
0.81 1.22 1.52 1.15 0.77 0.58 0.86 0.80 0.75 0.85 0.91 0.89 0.71 0.82 0.68 0.49 0.14 0.08 0.06 0.04 0.05 0.02 0.00 0.01 0.01 0.01 0.01 0.00 0.00 0.00 0.01 0.04
0.41 0.37 0.54 0.22 0.15 0.23 0.52 0.60 0.66 0.69 0.86 0.71 0.65 0.77 0.58 0.25 0.09 0.10 0.02 0.03 0.03 0.02 0.01 0.02 0.02 0.02 0.03 0.02 0.00 0.00 0.00 0.01
0.06 0.06 0.27 0.22 0.10 0.16 0.40 0.67 0.77 0.91 1.23 1.06 0.66 0.68 0.62 0.41 0.11 0.05 0.04 0.03 0.02 0.02 0.01 0.01 0.02 0.02 0.02 0.03 0.02 0.01 0.01 0.00
0.02 0.07 0.13 0.18 0.20 0.24 0.32 0.63 0.67 0.77 0.80 1.01 0.68 0.54 0.45 0.32 0.15 0.06 0.05 0.06 0.03 0.04 0.03 0.03 0.02 0.02 0.02 0.01 0.03 0.05 0.06 0.04
0.10 0.13 0.15 0.12 0.17 0.32 0.22 0.31 0.45 0.65 0.81 1.10 1.21 0.85 0.53 0.34 0.21 0.12 0.11 0.09 0.16 0.10 0.06 0.08 0.07 0.05 0.04 0.04 0.03 0.02 0.03 0.08
0.16 0.13 0.14 0.16 0.22 0.27 0.28 0.21 0.17 0.24 0.50 0.79 1.37 1.41 0.87 0.47 0.27 0.17 0.17 0.18 0.24 0.22 0.22 0.16 0.17 0.14 0.09 0.09 0.08 0.09 0.10 0.16
0.16 0.13 0.12 0.16 0.20 0.26 0.20 0.15 0.09 0.08 0.11 0.27 0.59 1.36 1.36 0.78 0.36 0.24 0.24 0.28 0.32 0.35 0.36 0.32 0.28 0.34 0.31 0.35 0.42 0.42 0.44 0.50
0.10 0.04 0.04 0.06 0.09 0.16 0.13 0.13 0.10 0.09 0.08 0.18 0.24 0.42 0.94 0.98 0.71 0.38 0.35 0.39 0.40 0.49 0.64 0.69 0.82 1.02 1.09 0.97 0.87 0.72 0.60 0.52

GFSFLT2_prec_precacc_117.txt.gz
Total_Precipitation_Accumulation
5.26 7.51 5.13 4.03 4.24 3.28 3.33 2.37 2.15 1.87 1.31 0.73 0.35 0.36 0.49 0.28 0.20 0.16 0.13 0.10 0.12 0.16 0.11 0.02 0.01 0.01 0.01 0.01 0.01 0.01 0.05 0.08
6.73 6.72 5.23 3.51 3.41 3.97 3.24 3.43 2.81 2.03 1.57 1.28 0.45 0.45 0.35 0.36 0.22 0.18 0.10 0.07 0.09 0.10 0.09 0.03 0.02 0.00 0.00 0.00 0.00 0.00 0.00 0.00
5.84 7.31 6.11 3.63 2.51 3.42 2.95 3.65 3.19 2.04 1.57 2.05 0.79 0.38 0.38 0.30 0.14 0.12 0.13 0.07 0.06 0.07 0.09 0.05 0.01 0.00 0.00 0.00 0.00 0.00 0.00 0.00
3.33 5.34 6.93 4.40 2.97 2.10 2.20 2.94 4.63 2.34 1.56 1.77 1.41 0.50 0.40 0.25 0.18 0.14 0.16 0.09 0.07 0.14 0.15 0.08 0.04 0.04 0.02 0.00 0.00 0.00 0.00 0.00
1.47 2.49 4.22 3.72 3.11 2.57 2.22 2.40 4.14 3.47 1.66 1.21 1.49 0.57 0.54 0.36 0.28 0.37 0.24 0.15 0.18 0.18 0.38 0.42 0.34 0.20 0.11 0.09 0.03 0.00 0.00 0.00
1.12 0.87 1.90 1.99 1.76 2.09 1.98 1.35 1.98 3.73 1.87 1.37 1.05 1.07 0.60 0.40 0.21 0.25 0.16 0.10 0.10 0.19 0.39 0.33 0.26 0.31 0.28 0.16 0.08 0.04 0.01 0.01
1.07 0.80 0.97 1.54 1.67 1.74 1.47 0.79 1.09 2.58 2.22 1.59 0.90 1.14 0.92 0.57 0.37 0.16 0.08 0.02 0.04 0.04 0.07 0.12 0.14 0.13 0.11 0.11 0.07 0.05 0.03 0.01
0.60 0.77 0.65 0.94 1.51 1.21 1.31 0.83 0.87 1.84 2.31 1.66 1.06 0.75 0.77 0.40 0.28 0.15 0.09 0.05 0.01 0.03 0.03 0.04 0.05 0.06 0.10 0.10 0.06 0.05 0.03 0.03
0.46 0.50 0.63 1.03 1.29 1.04 0.99 0.84 0.66 1.10 1.94 1.67 1.63 0.87 0.64 0.41 0.26 0.11 0.05 0.02 0.00 0.00 0.00 0.02 0.04 0.07 0.12 0.19 0.16 0.09 0.06 0.05
0.31 0.54 0.83 0.94 1.07 0.97 1.01 0.82 0.67 0.97 1.52 1.53 1.57 1.46 0.55 0.39 0.28 0.14 0.03 0.02 0.00 0.00 0.00 0.00 0.01 0.04 0.05 0.04 0.02 0.04 0.04 0.03
0.51 0.81 1.17 1.37 1.23 1.16 1.56 1.36 1.06 0.95 1.34 1.37 1.04 1.53 0.83 0.32 0.32 0.20 0.10 0.03 0.00 0.00 0.00 0.00 0.00 0.00 0.00 0.01 0.01 0.01 0.02 0.03
0.68 1.07 1.33 1.39 2.07 1.89 1.68 1.02 0.85 0.82 1.09 1.12 0.96 1.12 1.23 0.72 0.46 0.28 0.21 0.10 0.05 0.01 0.00 0.00 0.00 0.00 0.00 0.00 0.00 0.02 0.02 0.03
0.81 1.22 1.52 1.15 0.77 0.58 0.86 0.80 0.75 0.86 0.91 0.89 0.72 0.84 0.82 1.03 0.46 0.20 0.14 0.10 0.06 0.02 0.00 0.01 0.01 0.01 0.01 0.00 0.00 0.00 0.01 0.04
0.41 0.37 0.54 0.22 0.15 0.23 0.52 0.60 0.66 0.69 0.86 0.71 0.65 0.79 0.64 0.71 0.47 0.24 0.08 0.07 0.05 0.02 0.01 0.02 0.02 0.02 0.03 0.02 0.00 0.00 0.00 0.01
0.06 0.06 0.27 0.22 0.10 0.16 0.40 0.68 0.78 0.92 1.24 1.07 0.67 0.76 0.74 0.61 0.43 0.25 0.09 0.04 0.03 0.02 0.01 0.01 0.02 0.02 0.02 0.03 0.02 0.01 0.01 0.00
0.02 0.07 0.13 0.18 0.20 0.24 0.32 0.63 0.68 0.77 0.80 1.01 0.69 0.58 0.57 0.46 0.35 0.34 0.14 0.07 0.04 0.04 0.03 0.03 0.02 0.02 0.02 0.01 0.03 0.05 0.06 0.04
0.10 0.13 0.15 0.12 0.18 0.32 0.22 0.31 0.46 0.65 0.82 1.11 1.22 0.85 0.58 0.50 0.37 0.33 0.22 0.11 0.17 0.10 0.06 0.08 0.07 0.05 0.04 0.04 0.03 0.02 0.03 0.08
0.16 0.13 0.14 0.16 0.22 0.27 0.28 0.21 0.17 0.24 0.50 0.80 1.38 1.42 0.88 0.54 0.46 0.32 0.26 0.22 0.25 0.22 0.22 0.16 0.17 0.14 0.09 0.09 0.08 0.09 0.10 0.16
0.16 0.13 0.13 0.16 0.20 0.26 0.20 0.15 0.09 0.08 0.11 0.27 0.61 1.42 1.39 0.78 0.42 0.35 0.31 0.31 0.33 0.36 0.36 0.32 0.28 0.34 0.31 0.35 0.42 0.42 0.44 0.50
0.10 0.05 0.04 0.06 0.09 0.18 0.15 0.13 0.10 0.09 0.08 0.18 0.24 0.46 1.00 1.01 0.71 0.39 0.39 0.44 0.42 0.50 0.64 0.69 0.82 1.02 1.09 0.97 0.87 0.72 0.60 0.52

GFSFLT2_prec_precacc_120.txt.gz
Total_Precipitation_Accumulation
5.26 7.51 5.14 4.03 4.24 3.28 3.33 2.37 2.15 1.89 1.37 0.79 0.41 0.37 0.49 0.28 0.20 0.17 0.13 0.11 0.13 0.19 0.12 0.03 0.01 0.01 0.01 0.01 0.01 0.01 0.05 0.08
6.73 6.72 5.23 3.51 3.42 3.97 3.24 3.43 2.81 2.04 1.59 1.30 0.46 0.46 0.36 0.36 0.22 0.18 0.10 0.07 0.09 0.10 0.10 0.03 0.02 0.00 0.00 0.00 0.00 0.00 0.00 0.00
5.84 7.31 6.11 3.64 2.51 3.42 2.95 3.65 3.19 2.04 1.57 2.06 0.80 0.38 0.38 0.30 0.14 0.12 0.13 0.07 0.06 0.07 0.10 0.05 0.01 0.00 0.00 0.00 0.00 0.00 0.00 0.00
3.33 5.34 6.93 4.40 2.98 2.10 2.21 2.95 4.64 2.34 1.56 1.77 1.41 0.51 0.41 0.26 0.18 0.14 0.18 0.10 0.09 0.19 0.17 0.08 0.05 0.04 0.02 0.00 0.00 0.00 0.00 0.00
1.47 2.49 4.22 3.72 3.11 2.58 2.23 2.41 4.15 3.48 1.67 1.23 1.51 0.59 0.56 0.36 0.28 0.40 0.32 0.20 0.27 0.26 0.41 0.42 0.34 0.20 0.11 0.09 0.03 0.00 0.00 0.00
1.12 0.87 1.90 1.99 1.77 2.09 1.98 1.36 2.00 3.75 1.89 1.41 1.11 1.09 0.61 0.41 0.21 0.26 0.24 0.17 0.15 0.19 0.39 0.33 0.26 0.31 0.28 0.16 0.08 0.04 0.01 0.01
1.07 0.80 0.97 1.54 1.67 1.75 1.47 0.80 1.10 2.58 2.22 1.62 0.97 1.17 0.93 0.59 0.39 0.17 0.12 0.08 0.08 0.04 0.07 0.12 0.15 0.14 0.11 0.11 0.07 0.05 0.03 0.01
0.60 0.77 0.65 0.94 1.51 1.21 1.31 0.83 0.87 1.85 2.32 1.66 1.09 0.80 0.78 0.42 0.31 0.24 0.21 0.14 0.05 0.03 0.03 0.04 0.05 0.06 0.10 0.10 0.06 0.05 0.03 0.03
0.46 0.50 0.63 1.03 1.29 1.04 0.99 0.84 0.66 1.11 1.94 1.68 1.64 0.90 0.67 0.45 0.29 0.19 0.12 0.15 0.09 0.03 0.01 0.02 0.04 0.07 0.13 0.20 0.16 0.09 0.06 0.05
0.31 0.54 0.83 0.94 1.07 0.97 1.01 0.82 0.68 1.01 1.53 1.54 1.57 1.46 0.56 0.45 0.34 0.19 0.08 0.08 0.06 0.01 0.00 0.00 0.01 0.04 0.06 0.04 0.02 0.04 0.04 0.03
0.51 0.81 1.17 1.37 1.23 1.16 1.56 1.36 1.08 0.99 1.36 1.37 1.05 1.53 0.85 0.33 0.35 0.26 0.19 0.11 0.03 0.02 0.00 0.00 0.00 0.00 0.01 0.01 0.01 0.01 0.02 0.03
0.68 1.07 1.33 1.39 2.07 1.90 1.68 1.02 0.86 0.84 1.12 1.12 0.97 1.13 1.24 0.74 0.50 0.38 0.31 0.28 0.12 0.03 0.00 0.00 0.00 0.00 0.00 0.00 0.00 0.02 0.02 0.03
0.81 1.22 1.52 1.15 0.77 0.58 0.86 0.80 0.75 0.86 0.92 0.89 0.72 0.85 0.84 1.06 0.64 0.35 0.27 0.32 0.19 0.04 0.00 0.01 0.02 0.01 0.01 0.01 0.00 0.00 0.01 0.04
0.41 0.37 0.54 0.22 0.15 0.23 0.52 0.60 0.66 0.69 0.86 0.71 0.66 0.80 0.65 0.74 0.73 0.58 0.23 0.22 0.27 0.07 0.01 0.02 0.02 0.02 0.03 0.02 0.01 0.01 0.01 0.01
0.06 0.06 0.27 0.22 0.10 0.16 0.41 0.68 0.78 0.92 1.24 1.07 0.68 0.77 0.75 0.65 0.63 0.68 0.35 0.21 0.20 0.10 0.02 0.01 0.02 0.02 0.02 0.03 0.03 0.01 0.01 0.00
0.02 0.07 0.13 0.18 0.20 0.24 0.32 0.63 0.68 0.77 0.81 1.02 0.70 0.58 0.58 0.48 0.42 0.64 0.48 0.18 0.13 0.11 0.05 0.04 0.02 0.02 0.02 0.01 0.03 0.05 0.06 0.04
0.10 0.13 0.15 0.12 0.18 0.32 0.22 0.31 0.46 0.65 0.82 1.11 1.23 0.86 0.58 0.51 0.44 0.56 0.54 0.30 0.24 0.15 0.09 0.08 0.08 0.05 0.04 0.04 0.03 0.02 0.03 0.08
0.16 0.13 0.14 0.16 0.22 0.27 0.28 0.21 0.18 0.25 0.51 0.80 1.39 1.42 0.89 0.54 0.49 0.54 0.57 0.48 0.36 0.28 0.25 0.17 0.17 0.14 0.09 0.09 0.08 0.09 0.10 0.16
0.16 0.13 0.13 0.17 0.21 0.26 0.22 0.18 0.09 0.08 0.12 0.28 0.61 1.43 1.40 0.79 0.42 0.44 0.59 0.62 0.47 0.41 0.37 0.32 0.28 0.34 0.31 0.35 0.42 0.42 0.44 0.50
0.10 0.05 0.05 0.07 0.10 0.21 0.17 0.14 0.11 0.09 0.09 0.18 0.24 0.46 1.02 1.01 0.71 0.40 0.53 0.73 0.61 0.57 0.65 0.69 0.82 1.02 1.09 0.97 0.87 0.72 0.60 0.52